contact:dominique.lefevre@mio.osupytheas.fr, maurice.libes@osupytheas.fr, didier.mallarino@osupytheas.fr
Project:EMSO http://www.emso-fr.org/EMSO-France
Depth: 2436.0 m
Title:EMSO Ligure Ouest : Data MII capteur AQUADOPP
Date,Latitude,Longitude,X_East,Y_North,Z_Up,Amplitude_X,Amplitude_Y,Amplitude_Z,Batterie,SoundSpeed,Heading,Pitch,Roll,Pressure,TIS,Speed,Direction
, degrees North, degrees East, m.s-1, m.s-1,m.s-1, 1, 1, 1, Volt, m.s-1, degree, degree, degree, dbar, degree_C, m.s-1, degree
2023-11-29T00:04:03,42.805,6.029,0.004,-0.028,-0.032,111.0,110.0,108.0,13.3,1505.2,2.4,-0.8,1.8,2471.503,13.28,0.028,171.9
2023-11-29T00:07:03,42.805,6.029,0.048,-0.023,-0.004,111.0,111.0,107.0,13.4,1505.2,342.2,-0.8,1.8,2471.475,13.28,0.053,115.6
2023-11-29T00:10:03,42.805,6.029,0.034,-0.051,-0.01,111.0,108.0,107.0,13.3,1505.2,354.3,-0.8,1.8,2471.547,13.29,0.061,146.3
2023-11-29T00:13:03,42.805,6.029,0.038,-0.04,-0.009,110.0,110.0,107.0,13.3,1505.2,350.3,-0.8,1.8,2471.503,13.29,0.055,136.5
2023-11-29T00:16:03,42.805,6.029,0.017,-0.042,-0.011,111.0,109.0,107.0,13.4,1505.2,356.4,-0.8,1.8,2471.497,13.29,0.045,158.0
2023-11-29T00:19:03,42.805,6.029,0.032,-0.032,-0.022,111.0,109.0,107.0,13.4,1505.2,342.7,-0.8,1.8,2471.467,13.29,0.045,135.0
2023-11-29T00:22:03,42.805,6.029,0.026,-0.04,0.001,110.0,110.0,107.0,13.4,1505.2,355.3,-0.8,1.8,2471.477,13.29,0.047,147.0
2023-11-29T00:25:03,42.805,6.029,0.012,-0.04,-0.018,111.0,110.0,107.0,13.4,1505.2,0.8,-0.8,1.8,2471.478,13.29,0.041,163.3
2023-11-29T00:28:03,42.805,6.029,0.016,-0.031,-0.007,110.0,109.0,106.0,13.3,1505.2,355.7,-0.8,1.8,2471.498,13.29,0.034,152.7
2023-11-29T00:31:03,42.805,6.029,0.024,-0.027,-0.017,110.0,109.0,106.0,13.4,1505.2,357.4,-0.8,1.8,2471.468,13.29,0.036,138.4
2023-11-29T00:34:03,42.805,6.029,0.037,-0.036,0.004,112.0,110.0,106.0,13.3,1505.2,344.1,-0.7,1.8,2471.454,13.29,0.051,134.2
2023-11-29T00:37:03,42.805,6.029,0.024,-0.029,-0.005,110.0,110.0,107.0,13.4,1505.2,352.8,-0.8,1.9,2471.46,13.29,0.037,140.4
2023-11-29T00:40:03,42.805,6.029,0.017,-0.016,0.006,110.0,110.0,108.0,13.4,1505.2,337.4,-0.8,1.8,2471.445,13.29,0.023,133.3
2023-11-29T00:43:03,42.805,6.029,0.023,-0.03,-0.008,111.0,110.0,107.0,13.4,1505.2,355.6,-0.8,1.8,2471.477,13.29,0.037,142.5
2023-11-29T00:46:03,42.805,6.029,0.029,-0.054,0.008,113.0,110.0,108.0,13.4,1505.2,347.4,-0.8,1.8,2471.45,13.29,0.061,151.8
2023-11-29T00:49:03,42.805,6.029,0.013,-0.054,-0.008,112.0,110.0,107.0,13.4,1505.2,354.2,-0.8,1.8,2471.41,13.29,0.055,166.5
2023-11-29T00:52:03,42.805,6.029,0.028,-0.028,-0.021,111.0,110.0,107.0,13.4,1505.2,348.6,-0.8,1.8,2471.418,13.29,0.039,135.0
2023-11-29T00:55:03,42.805,6.029,0.035,-0.021,-0.016,112.0,111.0,107.0,13.4,1505.2,342.3,-0.8,1.8,2471.388,13.29,0.04,121.0
2023-11-29T00:58:03,42.805,6.029,0.008,-0.049,0.006,111.0,110.0,108.0,13.4,1505.2,359.0,-0.8,1.8,2471.441,13.29,0.049,170.7
2023-11-29T01:04:03,42.805,6.029,0.031,-0.016,-0.008,113.0,111.0,109.0,13.4,1505.2,352.5,-0.8,1.9,2471.478,13.28,0.034,117.3
2023-11-29T01:07:03,42.805,6.029,0.02,-0.043,-0.02,110.0,109.0,108.0,13.4,1505.2,355.3,-0.8,1.8,2471.502,13.28,0.047,155.1
2023-11-29T01:10:03,42.805,6.029,0.037,-0.03,-0.009,111.0,110.0,107.0,13.4,1505.2,0.8,-0.8,1.8,2471.463,13.29,0.047,129.0
2023-11-29T01:13:03,42.805,6.029,0.048,-0.015,0.0,110.0,112.0,107.0,13.4,1505.2,338.9,-0.7,1.8,2471.494,13.29,0.05,107.4
2023-11-29T01:16:03,42.805,6.029,0.023,-0.022,-0.012,110.0,111.0,108.0,13.3,1505.2,349.6,-0.8,1.8,2471.457,13.29,0.031,133.7
2023-11-29T01:19:03,42.805,6.029,0.028,-0.039,-0.001,113.0,110.0,109.0,13.3,1505.2,347.0,-0.8,1.8,2471.449,13.29,0.048,144.3
2023-11-29T01:22:03,42.805,6.029,0.035,-0.023,-0.001,112.0,109.0,107.0,13.4,1505.2,353.9,-0.8,1.9,2471.442,13.29,0.041,123.3
2023-11-29T01:25:03,42.805,6.029,0.023,-0.021,-0.033,111.0,111.0,108.0,13.4,1505.2,350.6,-0.8,1.8,2471.444,13.29,0.031,132.4
2023-11-29T01:28:03,42.805,6.029,0.035,-0.032,-0.002,111.0,110.0,107.0,13.4,1505.2,345.0,-0.8,1.8,2471.471,13.29,0.047,132.4
2023-11-29T01:31:03,42.805,6.029,0.05,-0.044,-0.011,112.0,111.0,108.0,13.3,1505.2,334.8,-0.7,1.8,2471.444,13.29,0.066,131.3
2023-11-29T01:34:03,42.805,6.029,0.026,-0.049,-0.017,113.0,110.0,108.0,13.4,1505.2,359.1,-0.8,1.8,2471.447,13.29,0.055,152.1
2023-11-29T01:37:03,42.805,6.029,0.021,-0.015,-0.015,113.0,110.0,107.0,13.4,1505.2,337.9,-0.8,1.8,2471.47,13.29,0.025,125.5
2023-11-29T01:40:03,42.805,6.029,0.042,-0.029,0.01,112.0,111.0,108.0,13.3,1505.2,351.7,-0.8,1.8,2471.45,13.29,0.051,124.6
2023-11-29T01:43:03,42.805,6.029,0.022,-0.042,0.022,113.0,110.0,107.0,13.3,1505.2,344.3,-0.7,1.8,2471.477,13.29,0.047,152.4
2023-11-29T01:46:03,42.805,6.029,0.014,-0.054,-0.009,111.0,112.0,108.0,13.3,1505.2,2.4,-0.7,1.8,2471.482,13.29,0.055,165.5
2023-11-29T01:49:03,42.805,6.029,0.02,-0.047,-0.009,113.0,113.0,108.0,13.4,1505.2,1.6,-0.8,1.8,2471.428,13.29,0.051,157.0
2023-11-29T01:52:03,42.805,6.029,0.021,-0.047,-0.003,113.0,112.0,108.0,13.4,1505.2,349.9,-0.7,1.8,2471.451,13.29,0.051,155.9
2023-11-29T01:55:03,42.805,6.029,0.028,-0.053,0.001,110.0,112.0,109.0,13.4,1505.2,344.5,-0.8,1.8,2471.455,13.29,0.059,152.1
2023-11-29T01:58:03,42.805,6.029,0.018,-0.04,0.002,113.0,111.0,108.0,13.4,1505.2,353.3,-0.8,1.8,2471.384,13.29,0.043,155.8
2023-11-29T02:01:03,42.805,6.029,0.042,-0.018,0.003,112.0,112.0,109.0,13.4,1505.2,335.3,-0.8,1.8,2471.439,13.29,0.045,113.2
2023-11-29T02:04:03,42.805,6.029,0.027,-0.047,-0.01,113.0,111.0,109.0,13.4,1505.2,353.7,-0.8,1.8,2471.438,13.29,0.054,150.1
2023-11-29T02:07:03,42.805,6.029,0.014,-0.056,-0.027,113.0,112.0,108.0,13.4,1505.2,344.0,-0.7,1.8,2471.466,13.29,0.057,166.0
2023-11-29T02:10:03,42.805,6.029,0.007,-0.057,-0.028,112.0,111.0,108.0,13.3,1505.2,340.0,-0.8,1.8,2471.42,13.29,0.057,173.0
2023-11-29T02:13:03,42.805,6.029,-0.003,-0.032,0.015,112.0,111.0,108.0,13.4,1505.2,337.3,-0.7,1.8,2471.469,13.29,0.032,185.4
2023-11-29T02:16:03,42.805,6.029,-0.001,-0.044,-0.007,112.0,111.0,108.0,13.4,1505.2,349.6,-0.7,1.9,2471.45,13.29,0.044,181.3
2023-11-29T02:19:03,42.805,6.029,0.016,-0.047,0.002,112.0,112.0,107.0,13.4,1505.2,341.5,-0.7,1.8,2471.455,13.29,0.049,161.2
2023-11-29T02:22:03,42.805,6.029,0.014,-0.032,0.0,110.0,110.0,108.0,13.4,1505.2,344.6,-0.8,1.8,2471.479,13.29,0.034,156.4
2023-11-29T02:25:03,42.805,6.029,0.009,-0.055,-0.002,112.0,112.0,108.0,13.3,1505.2,348.8,-0.8,1.8,2471.46,13.29,0.055,170.7
2023-11-29T02:28:03,42.805,6.029,0.004,-0.017,-0.02,113.0,112.0,108.0,13.4,1505.2,339.3,-0.8,1.8,2471.416,13.29,0.017,166.8
2023-11-29T02:31:03,42.805,6.029,0.015,-0.027,0.011,112.0,112.0,108.0,13.3,1505.2,345.7,-0.8,1.8,2471.413,13.29,0.03,150.9
2023-11-29T02:34:03,42.805,6.029,0.012,-0.024,-0.001,112.0,111.0,109.0,13.3,1505.2,345.3,-0.8,1.8,2471.445,13.29,0.026,153.4
2023-11-29T02:37:03,42.805,6.029,0.003,-0.023,-0.006,112.0,113.0,108.0,13.4,1505.2,357.5,-0.8,1.8,2471.414,13.29,0.023,172.6
2023-11-29T02:40:03,42.805,6.029,0.005,-0.031,0.001,114.0,111.0,108.0,13.4,1505.2,338.2,-0.8,1.8,2471.44,13.29,0.031,170.8
2023-11-29T02:43:03,42.805,6.029,0.054,-0.034,0.01,112.0,112.0,107.0,13.3,1505.2,343.1,-0.8,1.8,2471.439,13.29,0.063,122.2
2023-11-29T02:46:03,42.805,6.029,0.005,-0.042,-0.035,113.0,111.0,108.0,13.4,1505.2,356.2,-0.8,1.9,2471.459,13.29,0.042,173.2
2023-11-29T02:49:03,42.805,6.029,0.038,-0.037,-0.013,113.0,112.0,108.0,13.4,1505.2,335.6,-0.8,1.8,2471.483,13.29,0.053,134.2
2023-11-29T02:52:03,42.805,6.029,0.016,-0.043,-0.003,114.0,111.0,108.0,13.4,1505.2,342.3,-0.8,1.8,2471.459,13.29,0.045,159.6
2023-11-29T02:55:03,42.805,6.029,-0.01,-0.026,-0.039,113.0,112.0,107.0,13.4,1505.2,357.2,-0.8,1.8,2471.451,13.29,0.027,201.0
2023-11-29T02:58:03,42.805,6.029,0.004,-0.043,-0.01,113.0,111.0,108.0,13.3,1505.2,359.1,-0.8,1.8,2471.457,13.29,0.043,174.7
2023-11-29T03:04:03,42.805,6.029,0.023,-0.03,-0.001,111.0,112.0,109.0,13.4,1505.2,349.4,-0.8,1.8,2471.477,13.28,0.037,142.5
2023-11-29T03:07:03,42.805,6.029,0.011,-0.045,-0.007,111.0,111.0,107.0,13.4,1505.2,0.8,-0.7,1.8,2471.512,13.29,0.046,166.3
2023-11-29T03:10:03,42.805,6.029,0.009,-0.034,0.013,112.0,112.0,108.0,13.3,1505.2,356.5,-0.8,1.8,2471.512,13.29,0.035,165.2
2023-11-29T03:13:03,42.805,6.029,0.0,-0.046,-0.023,113.0,110.0,108.0,13.3,1505.2,346.1,-0.8,1.8,2471.489,13.29,0.046,180.0
2023-11-29T03:16:03,42.805,6.029,0.002,-0.026,0.002,111.0,111.0,107.0,13.3,1505.2,358.1,-0.7,1.8,2471.472,13.29,0.026,175.6
2023-11-29T03:19:03,42.805,6.029,0.011,-0.022,-0.01,112.0,111.0,107.0,13.4,1505.2,340.6,-0.8,1.8,2471.507,13.29,0.024,153.4
2023-11-29T03:22:03,42.805,6.029,0.012,-0.038,-0.026,112.0,111.0,108.0,13.4,1505.2,354.8,-0.8,1.8,2471.455,13.29,0.039,162.5
2023-11-29T03:25:03,42.805,6.029,0.003,-0.052,0.007,111.0,111.0,108.0,13.3,1505.2,2.5,-0.8,1.8,2471.482,13.29,0.052,176.7
2023-11-29T03:28:03,42.805,6.029,0.009,-0.05,-0.007,111.0,111.0,108.0,13.3,1505.2,355.7,-0.8,1.8,2471.467,13.29,0.05,169.8
2023-11-29T03:31:03,42.805,6.029,0.013,-0.039,0.029,111.0,110.0,107.0,13.4,1505.2,352.7,-0.8,1.8,2471.453,13.29,0.041,161.6
2023-11-29T03:34:03,42.805,6.029,0.016,-0.04,-0.038,112.0,109.0,107.0,13.4,1505.2,340.3,-0.7,1.8,2471.495,13.29,0.043,158.2
2023-11-29T03:37:03,42.805,6.029,-0.001,-0.037,-0.001,112.0,110.0,106.0,13.4,1505.2,355.3,-0.7,1.8,2471.505,13.29,0.037,181.5
2023-11-29T03:40:03,42.805,6.029,0.007,-0.021,0.0,112.0,111.0,109.0,13.4,1505.2,343.5,-0.8,1.8,2471.484,13.29,0.022,161.6
2023-11-29T03:43:03,42.805,6.029,0.007,-0.042,0.004,112.0,112.0,108.0,13.3,1505.2,0.8,-0.8,1.8,2471.482,13.29,0.042,170.5
2023-11-29T03:46:03,42.805,6.029,0.022,-0.049,-0.001,111.0,110.0,107.0,13.4,1505.2,351.7,-0.8,1.8,2471.483,13.29,0.053,155.8
2023-11-29T03:49:03,42.805,6.029,0.026,-0.049,-0.019,113.0,111.0,108.0,13.3,1505.2,357.5,-0.8,1.8,2471.484,13.29,0.055,152.1
2023-11-29T03:52:03,42.805,6.029,0.004,-0.038,-0.004,112.0,112.0,108.0,13.3,1505.2,356.5,-0.8,1.8,2471.473,13.29,0.038,174.0
2023-11-29T03:55:03,42.805,6.029,0.02,-0.045,-0.04,110.0,111.0,107.0,13.3,1505.2,343.3,-0.8,1.8,2471.438,13.29,0.049,156.0
2023-11-29T03:58:03,42.805,6.029,0.011,-0.036,-0.001,112.0,111.0,108.0,13.4,1505.2,349.6,-0.8,1.8,2471.486,13.29,0.037,163.0
2023-11-29T04:04:03,42.805,6.029,0.035,-0.018,0.014,111.0,110.0,107.0,13.3,1505.2,343.9,-0.8,1.8,2471.527,13.28,0.039,117.2
2023-11-29T04:07:03,42.805,6.029,0.011,-0.035,-0.01,113.0,111.0,108.0,13.4,1505.2,345.1,-0.8,1.8,2471.529,13.29,0.036,162.6
2023-11-29T04:10:03,42.805,6.029,0.027,-0.042,0.002,111.0,111.0,108.0,13.4,1505.2,2.5,-0.8,1.8,2471.542,13.29,0.049,147.3
2023-11-29T04:13:03,42.805,6.029,0.022,-0.031,-0.017,112.0,111.0,108.0,13.4,1505.2,336.2,-0.8,1.8,2471.546,13.29,0.038,144.6
2023-11-29T04:16:03,42.805,6.029,0.03,-0.044,-0.002,110.0,111.0,108.0,13.4,1505.2,338.2,-0.8,1.8,2471.549,13.29,0.053,145.7
2023-11-29T04:19:03,42.805,6.029,0.027,-0.047,-0.011,111.0,111.0,107.0,13.4,1505.2,355.4,-0.7,1.8,2471.497,13.29,0.054,150.1
2023-11-29T04:22:03,42.805,6.029,0.02,-0.027,-0.022,112.0,111.0,108.0,13.4,1505.2,354.5,-0.8,1.8,2471.511,13.29,0.033,143.5
2023-11-29T04:25:03,42.805,6.029,0.021,-0.032,0.015,112.0,110.0,107.0,13.3,1505.2,0.8,-0.7,1.8,2471.506,13.29,0.038,146.7
2023-11-29T04:28:03,42.805,6.029,0.023,-0.012,-0.004,112.0,111.0,108.0,13.3,1505.2,342.5,-0.7,1.8,2471.497,13.29,0.025,117.6
2023-11-29T04:31:03,42.805,6.029,0.021,-0.037,-0.013,112.0,110.0,107.0,13.4,1505.2,355.5,-0.8,1.8,2471.505,13.29,0.042,150.4
2023-11-29T04:34:03,42.805,6.029,0.0,-0.044,-0.025,111.0,111.0,108.0,13.4,1505.2,358.1,-0.8,1.8,2471.519,13.29,0.044,180.0
2023-11-29T04:37:03,42.805,6.029,0.04,-0.035,-0.007,111.0,110.0,106.0,13.3,1505.2,339.8,-0.8,1.8,2471.5,13.29,0.053,131.2
2023-11-29T04:40:03,42.805,6.029,0.016,-0.03,-0.005,111.0,111.0,106.0,13.3,1505.2,348.2,-0.8,1.8,2471.566,13.29,0.034,151.9
2023-11-29T04:43:03,42.805,6.029,0.015,-0.047,-0.027,110.0,109.0,108.0,13.3,1505.2,0.0,-0.8,1.8,2471.552,13.29,0.049,162.3
2023-11-29T04:46:03,42.805,6.029,0.025,-0.028,-0.006,112.0,110.0,108.0,13.3,1505.2,352.5,-0.8,1.8,2471.556,13.29,0.037,138.2
2023-11-29T04:49:03,42.805,6.029,0.012,-0.042,-0.009,113.0,110.0,107.0,13.4,1505.2,354.3,-0.8,1.8,2471.53,13.29,0.043,164.1
2023-11-29T04:52:03,42.805,6.029,0.029,-0.016,0.004,111.0,112.0,108.0,13.4,1505.2,340.7,-0.8,1.8,2471.494,13.29,0.033,118.9
2023-11-29T04:55:03,42.805,6.029,0.015,-0.037,0.005,112.0,110.0,108.0,13.4,1505.2,345.3,-0.8,1.8,2471.568,13.29,0.039,157.9
2023-11-29T04:58:03,42.805,6.029,0.025,-0.023,-0.006,111.0,111.0,108.0,13.4,1505.2,1.6,-0.7,1.8,2471.53,13.29,0.033,132.6
2023-11-29T05:04:03,42.805,6.029,0.019,-0.037,-0.002,111.0,110.0,108.0,13.4,1505.2,346.5,-0.7,1.8,2471.573,13.28,0.041,152.8
2023-11-29T05:07:03,42.805,6.029,0.019,-0.03,0.0,112.0,111.0,107.0,13.3,1505.2,346.4,-0.7,1.8,2471.569,13.28,0.035,147.7
2023-11-29T05:10:03,42.805,6.029,0.029,-0.047,-0.011,112.0,111.0,108.0,13.3,1505.2,357.5,-0.8,1.8,2471.585,13.29,0.055,148.3
2023-11-29T05:13:03,42.805,6.029,0.018,-0.025,0.001,111.0,111.0,107.0,13.4,1505.2,345.7,-0.8,1.8,2471.552,13.29,0.03,144.2
2023-11-29T05:16:03,42.805,6.029,0.013,-0.034,0.008,111.0,110.0,106.0,13.4,1505.2,349.3,-0.8,1.8,2471.556,13.29,0.036,159.1
2023-11-29T05:19:03,42.805,6.029,0.033,-0.044,-0.018,112.0,109.0,106.0,13.4,1505.2,357.1,-0.7,1.8,2471.559,13.29,0.055,143.1
2023-11-29T05:22:03,42.805,6.029,0.045,-0.041,-0.009,112.0,110.0,107.0,13.3,1505.2,336.4,-0.8,1.8,2471.625,13.29,0.06,132.3
2023-11-29T05:25:03,42.805,6.029,0.028,-0.033,0.017,111.0,110.0,107.0,13.4,1505.2,354.8,-0.8,1.8,2471.562,13.29,0.043,139.7
2023-11-29T05:28:03,42.805,6.029,0.041,-0.041,-0.01,111.0,110.0,107.0,13.4,1505.2,343.3,-0.8,1.8,2471.565,13.29,0.057,135.0
2023-11-29T05:31:03,42.805,6.029,0.038,-0.028,0.02,111.0,110.0,107.0,13.4,1505.2,341.0,-0.8,1.8,2471.62,13.29,0.047,126.4
2023-11-29T05:34:03,42.805,6.029,0.021,-0.025,0.02,111.0,110.0,107.0,13.3,1505.2,343.3,-0.8,1.8,2471.628,13.29,0.032,140.0
2023-11-29T05:37:03,42.805,6.029,0.029,-0.03,0.007,111.0,110.0,108.0,13.3,1505.2,351.9,-0.8,1.8,2471.562,13.29,0.041,136.0
2023-11-29T05:40:03,42.805,6.029,0.005,-0.039,-0.016,109.0,111.0,107.0,13.4,1505.2,338.9,-0.7,1.8,2471.613,13.29,0.039,172.7
2023-11-29T05:43:03,42.805,6.029,0.019,-0.058,0.016,109.0,111.0,107.0,13.4,1505.2,355.3,-0.7,1.8,2471.588,13.29,0.061,161.9
2023-11-29T05:46:03,42.805,6.029,0.028,-0.06,-0.016,111.0,111.0,107.0,13.4,1505.2,343.9,-0.8,1.8,2471.628,13.29,0.066,155.0
2023-11-29T05:49:03,42.805,6.029,0.014,-0.023,-0.004,111.0,110.0,109.0,13.4,1505.2,346.7,-0.8,1.8,2471.593,13.29,0.026,148.7
2023-11-29T05:52:03,42.805,6.029,0.028,-0.028,-0.017,113.0,109.0,107.0,13.4,1505.2,351.0,-0.7,1.8,2471.606,13.29,0.039,135.0
2023-11-29T05:55:03,42.805,6.029,0.018,-0.032,-0.001,112.0,109.0,108.0,13.4,1505.2,349.4,-0.8,1.8,2471.615,13.29,0.036,150.6
2023-11-29T05:58:03,42.805,6.029,0.026,-0.015,-0.001,111.0,111.0,107.0,13.4,1505.2,342.2,-0.8,1.8,2471.633,13.29,0.03,120.0
2023-11-29T06:04:03,42.805,6.029,0.038,-0.026,-0.002,111.0,110.0,108.0,13.3,1505.2,347.2,-0.7,1.8,2471.64,13.28,0.046,124.4
2023-11-29T06:07:03,42.805,6.029,0.034,-0.035,0.019,111.0,110.0,107.0,13.4,1505.2,349.6,-0.7,1.8,2471.646,13.28,0.048,135.8
2023-11-29T06:10:03,42.805,6.029,0.017,-0.017,0.013,110.0,110.0,107.0,13.4,1505.2,0.0,-0.8,1.8,2471.659,13.29,0.024,135.0
2023-11-29T06:13:03,42.805,6.029,0.019,-0.048,0.015,112.0,110.0,106.0,13.4,1505.2,348.6,-0.8,1.8,2471.68,13.29,0.051,158.4
2023-11-29T06:16:03,42.805,6.029,0.036,-0.033,-0.008,111.0,110.0,107.0,13.3,1505.2,344.6,-0.8,1.8,2471.612,13.29,0.048,132.5
2023-11-29T06:19:03,42.805,6.029,0.006,-0.053,-0.005,111.0,110.0,107.0,13.4,1505.2,2.5,-0.7,1.8,2471.659,13.29,0.053,173.5
2023-11-29T06:22:03,42.805,6.029,0.029,-0.035,-0.012,110.0,111.0,107.0,13.3,1505.2,339.9,-0.8,1.8,2471.639,13.29,0.045,140.4
2023-11-29T06:25:03,42.805,6.029,0.024,-0.048,-0.02,110.0,109.0,108.0,13.4,1505.2,349.1,-0.7,1.8,2471.695,13.29,0.053,153.4
2023-11-29T06:28:03,42.805,6.029,0.021,-0.027,0.004,112.0,110.0,107.0,13.4,1505.2,343.1,-0.8,1.8,2471.649,13.29,0.034,142.1
2023-11-29T06:31:03,42.805,6.029,0.038,-0.037,0.009,111.0,110.0,107.0,13.4,1505.2,359.1,-0.8,1.8,2471.684,13.29,0.053,134.2
2023-11-29T06:34:03,42.805,6.029,0.032,-0.037,0.015,110.0,109.0,106.0,13.4,1505.2,345.3,-0.8,1.8,2471.661,13.29,0.048,139.1
2023-11-29T06:37:03,42.805,6.029,0.031,-0.056,-0.021,112.0,110.0,107.0,13.3,1505.2,343.1,-0.8,1.8,2471.683,13.29,0.064,151.0
2023-11-29T06:40:03,42.805,6.029,0.039,-0.046,0.005,110.0,111.0,106.0,13.4,1505.2,346.6,-0.7,1.8,2471.676,13.29,0.06,139.7
2023-11-29T06:43:03,42.805,6.029,0.021,-0.018,0.012,109.0,109.0,107.0,13.3,1505.2,353.1,-0.8,1.8,2471.658,13.29,0.027,130.6
2023-11-29T06:46:03,42.805,6.029,0.04,-0.023,-0.038,112.0,110.0,107.0,13.4,1505.2,342.3,-0.8,1.8,2471.676,13.29,0.046,119.9
2023-11-29T06:49:03,42.805,6.029,0.032,-0.046,-0.005,111.0,109.0,107.0,13.3,1505.2,346.1,-0.8,1.8,2471.663,13.29,0.056,145.2
2023-11-29T06:52:03,42.805,6.029,0.03,-0.039,-0.014,110.0,110.0,107.0,13.4,1505.2,352.2,-0.8,1.8,2471.668,13.29,0.049,142.4
2023-11-29T06:55:03,42.805,6.029,0.026,-0.045,0.014,110.0,110.0,107.0,13.4,1505.2,343.1,-0.8,1.8,2471.694,13.29,0.051,150.0
2023-11-29T06:58:03,42.805,6.029,0.026,-0.045,-0.016,111.0,110.0,107.0,13.4,1505.2,0.0,-0.7,1.8,2471.71,13.29,0.051,150.0
2023-11-29T07:04:03,42.805,6.029,0.053,-0.046,0.013,111.0,109.0,105.0,13.4,1505.2,352.5,-0.8,1.8,2471.754,13.28,0.07,131.0
2023-11-29T07:07:03,42.805,6.029,0.049,-0.049,0.038,111.0,109.0,107.0,13.4,1505.2,349.0,-0.7,1.8,2471.74,13.28,0.069,135.0
2023-11-29T07:10:03,42.805,6.029,0.024,-0.05,0.012,111.0,110.0,107.0,13.4,1505.2,347.4,-0.8,1.8,2471.73,13.29,0.055,154.4
2023-11-29T07:13:03,42.805,6.029,0.021,-0.029,-0.006,110.0,110.0,107.0,13.4,1505.2,353.0,-0.8,1.8,2471.715,13.29,0.035,144.1
2023-11-29T07:16:03,42.805,6.029,0.055,-0.025,0.0,110.0,109.0,106.0,13.4,1505.2,352.9,-0.8,1.8,2471.721,13.29,0.06,114.4
2023-11-29T07:19:03,42.805,6.029,0.033,-0.039,0.006,111.0,111.0,106.0,13.3,1505.2,0.8,-0.8,1.8,2471.707,13.29,0.051,139.8
2023-11-29T07:22:03,42.805,6.029,0.045,-0.057,0.002,110.0,110.0,107.0,13.4,1505.2,344.2,-0.8,1.8,2471.721,13.29,0.072,141.7
2023-11-29T07:25:03,42.805,6.029,0.021,-0.053,-0.04,110.0,111.0,108.0,13.4,1505.2,354.3,-0.8,1.8,2471.712,13.29,0.057,158.4
2023-11-29T07:28:03,42.805,6.029,0.026,-0.051,0.0,111.0,110.0,106.0,13.3,1505.2,348.5,-0.8,1.8,2471.708,13.29,0.057,153.0
2023-11-29T07:31:03,42.805,6.029,0.032,-0.055,-0.01,111.0,110.0,107.0,13.4,1505.2,342.0,-0.8,1.8,2471.714,13.29,0.063,149.8
2023-11-29T07:34:03,42.805,6.029,0.035,-0.048,0.007,111.0,110.0,106.0,13.3,1505.2,358.2,-0.8,1.8,2471.713,13.29,0.059,143.9
2023-11-29T07:37:03,42.805,6.029,0.032,-0.037,0.012,110.0,111.0,107.0,13.4,1505.2,340.4,-0.8,1.8,2471.7,13.29,0.048,139.1
2023-11-29T07:40:03,42.805,6.029,0.034,-0.041,-0.014,110.0,110.0,106.0,13.3,1505.2,343.3,-0.7,1.8,2471.696,13.29,0.053,140.3
2023-11-29T07:43:03,42.805,6.029,0.017,-0.048,-0.023,110.0,110.0,108.0,13.3,1505.2,356.6,-0.8,1.9,2471.68,13.29,0.05,160.5
2023-11-29T07:46:03,42.805,6.029,0.019,-0.034,-0.008,112.0,110.0,108.0,13.3,1505.2,344.0,-0.8,1.8,2471.709,13.29,0.038,150.8
2023-11-29T07:49:03,42.805,6.029,0.023,-0.047,-0.003,111.0,110.0,107.0,13.4,1505.2,344.7,-0.8,1.8,2471.686,13.29,0.052,153.9
2023-11-29T07:52:03,42.805,6.029,0.022,-0.049,-0.017,110.0,109.0,107.0,13.4,1505.2,346.7,-0.8,1.9,2471.701,13.29,0.053,155.8
2023-11-29T07:55:03,42.805,6.029,0.03,-0.044,-0.01,110.0,110.0,106.0,13.3,1505.2,352.7,-0.8,1.8,2471.704,13.29,0.053,145.7
2023-11-29T07:58:03,42.805,6.029,0.038,-0.055,-0.029,109.0,110.0,107.0,13.3,1505.2,352.5,-0.8,1.8,2471.696,13.29,0.066,145.4
2023-11-29T08:04:03,42.805,6.029,0.029,-0.034,-0.01,111.0,108.0,107.0,13.4,1505.2,352.3,-0.7,1.8,2471.764,13.28,0.044,139.5
2023-11-29T08:07:03,42.805,6.029,0.03,-0.041,-0.028,111.0,110.0,107.0,13.4,1505.2,348.5,-0.8,1.8,2471.725,13.28,0.05,143.8
2023-11-29T08:10:03,42.805,6.029,0.046,-0.06,-0.014,111.0,110.0,106.0,13.3,1505.2,340.7,-0.7,1.8,2471.716,13.29,0.075,142.5
2023-11-29T08:13:03,42.805,6.029,0.034,-0.052,0.0,110.0,109.0,107.0,13.3,1505.2,353.2,-0.8,1.8,2471.763,13.29,0.062,146.8
2023-11-29T08:16:03,42.805,6.029,0.009,-0.044,0.019,110.0,110.0,106.0,13.4,1505.2,352.5,-0.8,1.8,2471.723,13.29,0.044,168.4
2023-11-29T08:19:03,42.805,6.029,0.02,-0.035,-0.015,110.0,110.0,106.0,13.4,1505.2,0.0,-0.8,1.8,2471.758,13.29,0.04,150.3
2023-11-29T08:22:03,42.805,6.029,0.042,-0.028,0.029,109.0,109.0,107.0,13.4,1505.2,344.4,-0.8,1.8,2471.732,13.29,0.05,123.7
2023-11-29T08:25:03,42.805,6.029,0.042,-0.048,0.013,110.0,109.0,107.0,13.4,1505.2,349.9,-0.8,1.8,2471.739,13.29,0.063,138.8
2023-11-29T08:28:03,42.805,6.029,0.023,-0.061,-0.016,111.0,110.0,106.0,13.4,1505.2,352.8,-0.8,1.8,2471.765,13.29,0.065,159.3
2023-11-29T08:31:03,42.805,6.029,0.038,-0.051,0.002,111.0,110.0,107.0,13.4,1505.2,346.6,-0.8,1.8,2471.745,13.29,0.063,143.3
2023-11-29T08:34:03,42.805,6.029,0.023,-0.057,-0.016,109.0,110.0,106.0,13.4,1505.2,343.1,-0.8,1.8,2471.699,13.29,0.061,158.0
2023-11-29T08:37:03,42.805,6.029,0.017,-0.033,-0.005,111.0,109.0,107.0,13.3,1505.2,0.8,-0.8,1.8,2471.679,13.29,0.037,152.7
2023-11-29T08:40:03,42.805,6.029,0.026,-0.032,-0.006,111.0,111.0,107.0,13.4,1505.2,337.2,-0.8,1.8,2471.711,13.29,0.041,140.9
2023-11-29T08:43:03,42.805,6.029,0.023,-0.043,-0.028,110.0,110.0,106.0,13.4,1505.2,344.5,-0.8,1.8,2471.744,13.29,0.048,151.9
2023-11-29T08:46:03,42.805,6.029,0.0,-0.058,-0.008,110.0,109.0,107.0,13.4,1505.2,0.9,-0.7,1.8,2471.723,13.29,0.057,180.0
2023-11-29T08:49:03,42.805,6.029,0.009,-0.056,-0.011,110.0,109.0,106.0,13.3,1505.2,0.0,-0.7,1.8,2471.718,13.29,0.056,170.9
2023-11-29T08:52:03,42.805,6.029,0.054,-0.039,-0.008,110.0,109.0,106.0,13.4,1505.2,335.2,-0.8,1.8,2471.764,13.29,0.066,125.8
2023-11-29T08:55:03,42.805,6.029,0.035,-0.051,0.003,110.0,109.0,106.0,13.4,1505.2,348.5,-0.8,1.8,2471.74,13.29,0.061,145.5
2023-11-29T08:58:03,42.805,6.029,0.019,-0.043,0.006,111.0,109.0,106.0,13.4,1505.2,347.5,-0.8,1.8,2471.721,13.29,0.047,156.2
2023-11-29T09:04:03,42.805,6.029,0.017,-0.05,0.02,111.0,110.0,107.0,13.4,1505.2,353.7,-0.8,1.8,2471.77,13.28,0.052,161.2
2023-11-29T09:07:03,42.805,6.029,0.011,-0.058,-0.018,110.0,109.0,107.0,13.4,1505.2,0.0,-0.8,1.8,2471.798,13.28,0.059,169.3
2023-11-29T09:10:03,42.805,6.029,0.03,-0.04,0.012,110.0,110.0,106.0,13.4,1505.2,339.3,-0.8,1.8,2471.769,13.29,0.05,143.1
2023-11-29T09:13:03,42.805,6.029,0.018,-0.035,0.004,111.0,109.0,106.0,13.4,1505.2,343.1,-0.7,1.8,2471.736,13.29,0.039,152.8
2023-11-29T09:16:03,42.805,6.029,0.0,-0.062,-0.025,111.0,109.0,107.0,13.4,1505.2,356.3,-0.7,1.8,2471.697,13.29,0.061,180.0
2023-11-29T09:19:03,42.805,6.029,0.032,-0.038,-0.023,111.0,110.0,106.0,13.4,1505.2,341.5,-0.7,1.8,2471.769,13.29,0.049,139.9
2023-11-29T09:22:03,42.805,6.029,0.028,-0.047,-0.032,110.0,109.0,108.0,13.4,1505.2,347.1,-0.8,1.8,2471.72,13.29,0.054,149.2
2023-11-29T09:25:03,42.805,6.029,0.017,-0.04,-0.008,109.0,110.0,106.0,13.4,1505.2,357.3,-0.8,1.8,2471.712,13.29,0.043,157.0
2023-11-29T09:28:03,42.805,6.029,0.036,-0.029,-0.019,111.0,109.0,106.0,13.3,1505.2,339.0,-0.8,1.8,2471.7,13.29,0.046,128.9
2023-11-29T09:31:03,42.805,6.029,0.03,-0.047,-0.002,112.0,110.0,107.0,13.4,1505.2,353.3,-0.8,1.8,2471.725,13.29,0.055,147.4
2023-11-29T09:34:03,42.805,6.029,0.001,-0.029,-0.024,111.0,110.0,106.0,13.4,1505.2,343.8,-0.7,1.8,2471.73,13.29,0.029,178.0
2023-11-29T09:37:03,42.805,6.029,0.047,-0.031,-0.03,111.0,110.0,107.0,13.4,1505.2,348.5,-0.8,1.8,2471.753,13.29,0.056,123.4
2023-11-29T09:40:03,42.805,6.029,0.024,-0.024,-0.01,111.0,110.0,107.0,13.3,1505.2,347.4,-0.8,1.8,2471.71,13.29,0.033,135.0
2023-11-29T09:43:03,42.805,6.029,0.001,-0.038,0.001,110.0,109.0,107.0,13.4,1505.2,341.8,-0.8,1.8,2471.754,13.29,0.038,178.5
2023-11-29T09:46:03,42.805,6.029,0.008,-0.039,-0.001,110.0,110.0,107.0,13.4,1505.2,0.0,-0.7,1.8,2471.713,13.29,0.039,168.4
2023-11-29T09:49:03,42.805,6.029,0.032,-0.042,-0.024,110.0,110.0,107.0,13.4,1505.2,338.2,-0.8,1.9,2471.684,13.29,0.052,142.7
2023-11-29T09:52:03,42.805,6.029,0.006,-0.029,-0.01,112.0,110.0,107.0,13.4,1505.2,343.6,-0.8,1.8,2471.699,13.29,0.029,168.3